Regional Weather Roundup
Issued by NWS

Home | Current Version | Previous Version | Graphics & Text | Print | Product List | Glossary On
Versions: 1 2 3 4 5 6 7 8 9 10 11 12 13 14 15 16 17 18 19 20 21 22 23 24 25 26 27 28 29 30 31 32 33 34 35 36 37 38 39 40 41 42 43 44 45 46 47 48 49 50
715
ASUS43 KOAX 242202
RWRNE

WEATHER ROUNDUP FOR NEBRASKA
NATIONAL WEATHER SERVICE OMAHA NE
400 PM CST FRI NOV 24 2017

NOTES: SATELLITE DATA IS BEING USED TO AUGMENT CLOUD COVER ABOVE
       12000 FEET.
       "FAIR" INDICATES FEW OR NO CLOUDS BELOW 12,000 FEET WITH NO
       SIGNIFICANT WEATHER AND/OR OBSTRUCTIONS TO VISIBILITY.


NEZ001>004-019>022-054>056-242300-
NEBRASKA PANHANDLE

CITY           SKY/WX    TMP DP  RH WIND       PRES   REMARKS
SCOTTSBLUFF    SUNNY     57  21  24 NW21      29.91R
ALLIANCE       SUNNY     53  30  41 N13       29.89R
CHADRON        CLOUDY    54  29  38 NW12      29.90R
GORDON         FAIR      50  27  40 N9        29.89R
KIMBALL        CLOUDY    55  34  45 N14G21    29.93R
SIDNEY         SUNNY     55  29  36 N18       29.89R
$$

NEZ057>060-069>072-079>082-242300-
SOUTHWEST NEBRASKA

CITY           SKY/WX    TMP DP  RH WIND       PRES   REMARKS
NORTH PLATTE   SUNNY     63  37  38 N21G29    29.82R
IMPERIAL       SUNNY     62  36  37 N22G31    29.81R
LEXINGTON      SUNNY     65  35  33 N22G30    29.79R
MCCOOK         CLOUDY    61  39  44 N8        29.79R
OGALLALA       SUNNY     64  33  30 NW17      29.84R
$$

NEZ005>010-023>029-035>040-094-242300-
NORTH CENTRAL NEBRASKA

CITY           SKY/WX    TMP DP  RH WIND       PRES   REMARKS
VALENTINE      SUNNY     58  28  32 NW22G28   29.84R
AINSWORTH      CLEAR     56  29  34 NW23G37   29.83R
BROKEN BOW     SUNNY     61  35  37 NW18G32   29.80R
O`NEILL        CLEAR     58  34  41 NW24G33   29.79R
ORD            CLEAR     59  33  37 N30G41    29.77R
THEDFORD       MOSUNNY   56  32  39 NW16G24   29.85R
$$

NEZ041-046>049-061>064-073>077-083>087-242300-
SOUTH CENTRAL NEBRASKA

CITY           SKY/WX    TMP DP  RH WIND       PRES   REMARKS
GRAND ISLAND   CLEAR     64  38  38 N26G35    29.75R
AURORA         CLEAR     66  36  32 N29G38    29.74R
HASTINGS       SUNNY     66  35  31 N22G31    29.75R
HEBRON         SUNNY     69  39  33 N18G25    29.71R
HOLDREGE       SUNNY     64  38  38 N14G22    29.77R
KEARNEY        SUNNY     65  37  35 N24       29.77R
YORK           CLEAR     66  37  34 N16G23    29.72R
$$

NEZ011>018-030>034-042>045-242300-
NORTHEAST NEBRASKA

CITY           SKY/WX    TMP DP  RH WIND       PRES   REMARKS
NORFOLK        CLEAR     60  34  37 NW33G41   29.70R
ALBION         CLEAR     62  35  35 NW30G39   29.75R
BLAIR          CLEAR     67  38  34 NW20G31   29.64R
COLUMBUS       CLEAR     65  34  31 NW28G36   29.70R
FREMONT        PTCLDY    67  35  31 NW25G33   29.68R
TEKAMAH        PTCLDY    65  34  31 NW25G45   29.65R
WAYNE          CLEAR     60  34  38 NW22G39   29.70R
$$

NEZ050>053-065>068-078-088>093-242300-
SOUTHEAST NEBRASKA

CITY           SKY/WX    TMP DP  RH WIND       PRES   REMARKS
LINCOLN        CLEAR     69  38  32 N17G28    29.69R
OMAHA EPPLEY   PTCLDY    67  39  35 N13       29.63R
BEATRICE       CLEAR     67  41  39 N16G28    29.69R
FALLS CITY     CLOUDY    68  40  35 N18G31    29.62R
NEBRASKA CITY  CLEAR     67  41  38 N17G26    29.65R
PLATTSMOUTH    CLEAR     67  39  36 N14G25    29.65R
$$

NEZ044-045-051>053-067-242300-
OMAHA AREA

CITY           SKY/WX    TMP DP  RH WIND       PRES   REMARKS
OMAHA EPPLEY   PTCLDY    67  39  35 N13       29.63R
BLAIR          CLEAR     67  38  34 NW20G31   29.64R
FREMONT        PTCLDY    67  35  31 NW25G33   29.68R
MILLARD        CLEAR     69  41  36 NW10G16   29.65R
OFFUTT AFB     CLEAR     67  38  34 N9G24     29.64R
PLATTSMOUTH    CLEAR     67  39  36 N14G25    29.65R
WAHOO          FAIR      68  36  30 NW18G30   29.66R
$$




USA.gov is the U.S. government's official web portal to all federal, state and local government web resources and services.